sat.trackr.live / text

‹ back to catalog

STARLINK-11467 [DTC]

NORAD 62068 · 2024-217M

PAYLOAD ACTIVE UNKNOWN

§ Identity

Operator
Country
US
Launch date
2024-11-24
Launch site
AFWTR
Launch vehicle
Mass (kg)
RCS (m²)

Purposes: comms

External: N2YO · Heavens-Above · Gunter

§ Orbital elements

Epoch: 2026-05-25T00:31:23.524320Z

Period
91.74 min
Inclination
53.1574°
Eccentricity
0.0001006
Mean motion
15.69714934 rev/d
Perigee alt
359.0 km
Apogee alt
360.4 km
Semi-major
6,737.8 km
B*
1.2475e-3
RAAN
54.8704°
Arg perigee
73.1331°
Mean anomaly
286.9797°
Rev number
8,716

§ Raw data

STARLINK-11467 [DTC]1 62068U 24217M   26145.02180005  .00153397  00000+0  12475-2 0  99902 62068  53.1574  54.8704 0001006  73.1331 286.9797 15.69714934 87161

JSON: /api/v1/satellites/62068 · /tle

For live sub-satellite position, see the globe view (requires WebGL).

§ Visibility from observer

Set your observer location to see the next 7 days of passes ≥ 10°. The values pass through the URL so the page stays shareable.

No JS? Fill the form by hand. The geolocation button needs JavaScript.